Location: *
(51.1248°S, 108.4023°W)
Time: 05:08:10
(UTC+00:00)

SKYMED 2 - Pass Details

Date: 15 June 2021
Orbit: 621 x 623 km, 97.9° (Epoch: 31 July)

Event Time Altitude Azimuth Distance (km) Brightness Sun altitude
Rises 13:38:38 0° 167° (SSE) 2,951 7.0 -14.3°
Reaches altitude 10° 13:40:51 10° 168° (SSE) 2,036 6.1 -14.0°
Maximum altitude 13:45:17 79° 253° (WSW) 653 3.5 -13.3°
Drops below altitude 10° 13:49:40 10° 340° (NNW) 2,010 6.2 -12.7°
Sets 13:51:50 0° 340° (NNW) 2,909 7.0 -12.4°
